| time (UTC) | temp F | wind direction | speed knots | gust knots | rain 1hr in | rain 24hr in | rain mn in | humidity % | barometer mb |
| 20260903105030 | 82 | 180 | 2.6 | 4.3 | 0.00 | 0.00 | 0.00 | 80 | 1011.9 |
| 20260903104530 | 82 | 234 | 3.5 | 4.3 | 0.00 | 0.00 | 0.00 | 80 | 1011.9 |
| 20260903104029 | 82 | 211 | 1.7 | 6.1 | 0.00 | 0.00 | 0.00 | 80 | 1011.8 |
| 20260903103529 | 82 | 148 | 0.9 | 6.1 | 0.00 | 0.00 | 0.00 | 80 | 1011.7 |
| 20260903103029 | 82 | 125 | 0.0 | 6.1 | 0.00 | 0.00 | 0.00 | 80 | 1011.7 |
| 20260903102529 | 82 | 162 | 0.9 | 6.1 | 0.00 | 0.00 | 0.00 | 80 | 1011.7 |
| 20260903102029 | 82 | 198 | 2.6 | 3.5 | 0.00 | 0.00 | 0.00 | 80 | 1011.8 |
| 20260903100529 | 82 | 130 | 2.6 | 3.5 | 0.00 | 0.00 | 0.00 | 80 | 1011.7 |
| 20260903100029 | 82 | 203 | 1.7 | 3.5 | 0.00 | 0.00 | 0.00 | 80 | 1011.7 |
| 20260903095029 | 82 | 165 | 0.9 | 3.5 | 0.00 | 0.00 | 0.00 | 80 | 1011.8 |
| 20260903094529 | 82 | 194 | 2.6 | 3.5 | 0.00 | 0.00 | 0.00 | 80 | 1011.9 |
| 20260903094029 | 82 | 259 | 0.9 | 3.5 | 0.00 | 0.00 | 0.00 | 80 | 1011.9 |
| 20260903093529 | 82 | 120 | 1.7 | 3.5 | 0.00 | 0.00 | 0.00 | 80 | 1011.9 |
| 20260903093029 | 82 | 159 | 0.0 | 3.5 | 0.00 | 0.00 | 0.00 | 80 | 1012.0 |
| 20260903092029 | 82 | 209 | 1.7 | 2.6 | 0.00 | 0.00 | 0.00 | 79 | 1012.0 |
| 20260903091529 | 82 | 202 | 0.9 | 1.7 | 0.00 | 0.00 | 0.00 | 79 | 1012.1 |
| 20260903091030 | 82 | 165 | 0.0 | 2.6 | 0.00 | 0.00 | 0.00 | 79 | 1011.9 |
| 20260903090529 | 82 | 209 | 1.7 | 6.1 | 0.00 | 0.00 | 0.00 | 79 | 1012.1 |
| 20260903090028 | 82 | 129 | 6.1 | 6.1 | 0.00 | 0.00 | 0.00 | 79 | 1012.1 |
| 20260903085528 | 82 | 208 | 3.5 | 5.2 | 0.00 | 0.00 | 0.00 | 79 | 1012.1 |
| 20260903085028 | 82 | 202 | 0.9 | 4.3 | 0.00 | 0.00 | 0.00 | 79 | 1012.1 |
| 20260903084528 | 82 | 203 | 2.6 | 4.3 | 0.00 | 0.00 | 0.00 | 78 | 1012.1 |
| 20260903084028 | 82 | 50 | 1.7 | 6.1 | 0.00 | 0.00 | 0.00 | 78 | 1012.0 |
| 20260903083528 | 82 | 161 | 0.9 | 6.1 | 0.00 | 0.00 | 0.00 | 78 | 1012.0 |
| 20260903083028 | 82 | 169 | 0.9 | 2.6 | 0.00 | 0.00 | 0.00 | 78 | 1012.0 |
| 20260903082528 | 83 | 213 | 0.9 | 5.2 | 0.00 | 0.00 | 0.00 | 78 | 1012.0 |
| 20260903082028 | 83 | 241 | 1.7 | 5.2 | 0.00 | 0.00 | 0.00 | 78 | 1012.0 |
| 20260903081528 | 83 | 226 | 0.0 | 6.1 | 0.00 | 0.00 | 0.00 | 78 | 1012.0 |
| 20260903081028 | 83 | 113 | 0.0 | 6.1 | 0.00 | 0.00 | 0.00 | 77 | 1011.9 |
| 20260903080528 | 83 | 236 | 0.9 | 4.3 | 0.00 | 0.00 | 0.00 | 77 | 1012.0 |
| 20260903080028 | 83 | 217 | 3.5 | 4.3 | 0.00 | 0.00 | 0.00 | 77 | 1012.1 |
| 20260903074528 | 83 | 170 | 0.0 | 4.3 | 0.00 | 0.00 | 0.00 | 76 | 1012.2 |
| 20260903074028 | 83 | 128 | 0.0 | 4.3 | 0.00 | 0.00 | 0.00 | 76 | 1012.2 |
| 20260903073528 | 83 | 169 | 0.0 | 7.0 | 0.00 | 0.00 | 0.00 | 75 | 1012.3 |
| 20260903073027 | 83 | 141 | 0.9 | 7.0 | 0.00 | 0.00 | 0.00 | 75 | 1012.3 |
| 20260903072527 | 83 | 207 | 1.7 | 3.5 | 0.00 | 0.00 | 0.00 | 75 | 1012.3 |
| 20260903072027 | 83 | 155 | 0.0 | 3.5 | 0.00 | 0.00 | 0.00 | 75 | 1012.3 |
| 20260903071527 | 83 | 209 | 3.5 | 3.5 | 0.00 | 0.00 | 0.00 | 74 | 1012.3 |
| 20260903071027 | 84 | 173 | 2.6 | 6.1 | 0.00 | 0.00 | 0.00 | 74 | 1012.3 |
| 20260903070527 | 84 | 206 | 1.7 | 6.1 | 0.00 | 0.00 | 0.00 | 74 | 1012.4 |
| 20260903070027 | 84 | 135 | 1.7 | 3.5 | 0.00 | 0.00 | 0.00 | 73 | 1012.3 |
| 20260903065527 | 84 | 223 | 0.9 | 4.3 | 0.00 | 0.00 | 0.00 | 73 | 1012.4 |
| 20260903064527 | 84 | 107 | 3.5 | 4.3 | 0.00 | 0.00 | 0.00 | 72 | 1012.4 |
| 20260903063527 | 84 | 190 | 0.0 | 6.1 | 0.00 | 0.00 | 0.00 | 71 | 1012.5 |
| 20260903063027 | 84 | 132 | 0.9 | 6.1 | 0.00 | 0.00 | 0.00 | 71 | 1012.5 |
| 20260903062527 | 84 | 111 | 0.9 | 5.2 | 0.00 | 0.00 | 0.00 | 71 | 1012.5 |
| 20260903062027 | 85 | 222 | 2.6 | 5.2 | 0.00 | 0.00 | 0.00 | 70 | 1012.4 |
| 20260903061527 | 85 | 132 | 0.9 | 3.5 | 0.00 | 0.00 | 0.00 | 70 | 1012.4 |
| 20260903061026 | 85 | 134 | 3.5 | 3.5 | 0.00 | 0.00 | 0.00 | 69 | 1012.4 |
| 20260903060526 | 85 | 190 | 1.7 | 3.5 | 0.00 | 0.00 | 0.00 | 68 | 1012.4 |
| 20260903060027 | 85 | 132 | 2.6 | 4.3 | 0.00 | 0.00 | 0.00 | 68 | 1012.4 |
| 20260903055526 | 85 | 232 | 0.9 | 4.3 | 0.00 | 0.00 | 0.00 | 67 | 1012.5 |
| 20260903055026 | 85 | 261 | 1.7 | 3.5 | 0.00 | 0.00 | 0.00 | 66 | 1012.5 |
| 20260903054526 | 85 | 131 | 0.0 | 7.0 | 0.00 | 0.00 | 0.00 | 66 | 1012.4 |
| 20260903054026 | 85 | 109 | 3.5 | 7.8 | 0.00 | 0.00 | 0.00 | 65 | 1012.5 |
| 20260903053526 | 86 | 148 | 5.2 | 8.7 | 0.00 | 0.00 | 0.00 | 65 | 1012.4 |
| 20260903053026 | 86 | 144 | 1.7 | 8.7 | 0.00 | 0.00 | 0.00 | 64 | 1012.4 |
| 20260903052526 | 86 | 113 | 5.2 | 8.7 | 0.00 | 0.00 | 0.00 | 63 | 1012.3 |
| 20260903052026 | 86 | 134 | 4.3 | 15.6 | 0.00 | 0.00 | 0.00 | 63 | 1012.3 |
| 20260903051026 | 86 | 267 | 1.7 | 11.3 | 0.00 | 0.00 | 0.00 | 61 | 1012.3 |
| 20260903050526 | 86 | 149 | 2.6 | 7.0 | 0.00 | 0.00 | 0.00 | 60 | 1012.4 |
| 20260903045526 | 87 | 154 | 3.5 | 5.2 | 0.00 | 0.00 | 0.00 | 59 | 1012.4 |
| 20260903045026 | 87 | 141 | 1.7 | 7.0 | 0.00 | 0.00 | 0.00 | 59 | 1012.3 |
| 20260903044526 | 87 | 105 | 7.0 | 7.8 | 0.00 | 0.00 | 0.00 | 58 | 1012.3 |
| 20260903044026 | 87 | 125 | 2.6 | 7.8 | 0.00 | 0.00 | 0.00 | 58 | 1012.2 |
| 20260903043526 | 87 | 103 | 1.7 | 6.1 | 0.00 | 0.00 | 0.00 | 58 | 1012.1 |
| 20260903043026 | 87 | 121 | 3.5 | 10.4 | 0.00 | 0.00 | 0.00 | 58 | 1012.1 |
| 20260903042525 | 87 | 128 | 10.4 | 10.4 | 0.00 | 0.00 | 0.00 | 58 | 1012.1 |
| 20260903042025 | 87 | 114 | 2.6 | 4.3 | 0.00 | 0.00 | 0.00 | 59 | 1011.9 |
| 20260903041025 | 88 | 250 | 0.0 | 8.7 | 0.00 | 0.00 | 0.00 | 60 | 1011.9 |
| 20260903040525 | 88 | 130 | 1.7 | 8.7 | 0.00 | 0.00 | 0.00 | 60 | 1012.0 |
| 20260903040025 | 88 | 105 | 3.5 | 7.0 | 0.00 | 0.00 | 0.00 | 59 | 1012.0 |
| 20260903035525 | 88 | 126 | 4.3 | 7.0 | 0.00 | 0.00 | 0.00 | 59 | 1011.9 |
| 20260903035025 | 88 | 182 | 1.7 | 8.7 | 0.00 | 0.00 | 0.00 | 58 | 1011.9 |
| 20260903034525 | 89 | 108 | 8.7 | 8.7 | 0.00 | 0.00 | 0.00 | 58 | 1011.9 |
| 20260903034025 | 89 | 107 | 1.7 | 8.7 | 0.00 | 0.00 | 0.00 | 58 | 1011.8 |
| 20260903033525 | 89 | 90 | 3.5 | 9.6 | 0.00 | 0.00 | 0.00 | 57 | 1011.9 |
| 20260903032525 | 90 | 169 | 6.1 | 11.3 | 0.00 | 0.00 | 0.00 | 56 | 1011.9 |
| 20260903032025 | 90 | 128 | 2.6 | 11.3 | 0.00 | 0.00 | 0.00 | 55 | 1011.8 |
| 20260903031524 | 90 | 130 | 7.8 | 11.3 | 0.00 | 0.00 | 0.00 | 55 | 1011.8 |
| 20260903031025 | 90 | 109 | 1.7 | 6.1 | 0.00 | 0.00 | 0.00 | 54 | 1011.6 |
| 20260903030525 | 90 | 206 | 3.5 | 6.1 | 0.00 | 0.00 | 0.00 | 53 | 1011.6 |
| 20260903030024 | 90 | 132 | 3.5 | 6.1 | 0.00 | 0.00 | 0.00 | 53 | 1011.4 |
| 20260903025525 | 90 | 94 | 0.9 | 2.6 | 0.00 | 0.00 | 0.00 | 53 | 1011.1 |
| 20260903025024 | 90 | 74 | 1.7 | 1.7 | 0.00 | 0.00 | 0.00 | 52 | 1011.0 |
| 20260903024524 | 90 | 110 | 0.0 | 3.5 | 0.00 | 0.00 | 0.00 | 52 | 1010.8 |
| 20260903024024 | 90 | 117 | 3.5 | 6.1 | 0.00 | 0.00 | 0.00 | 52 | 1010.7 |
| 20260903023024 | 91 | 97 | 0.0 | 2.6 | 0.00 | 0.00 | 0.00 | 52 | 1010.5 |
| 20260903022524 | 91 | 117 | 0.9 | 2.6 | 0.00 | 0.00 | 0.00 | 52 | 1010.4 |
| 20260903022024 | 91 | 113 | 0.0 | 2.6 | 0.00 | 0.00 | 0.00 | 52 | 1010.4 |
| 20260903021524 | 91 | 157 | 1.7 | 2.6 | 0.00 | 0.00 | 0.00 | 51 | 1010.3 |
| 20260903021024 | 92 | 123 | 1.7 | 4.3 | 0.00 | 0.00 | 0.00 | 51 | 1010.2 |
| 20260903020024 | 92 | 110 | 0.9 | 1.7 | 0.00 | 0.00 | 0.00 | 51 | 1010.1 |
| 20260903015524 | 92 | 148 | 0.9 | 2.6 | 0.00 | 0.00 | 0.00 | 49 | 1010.0 |
| 20260903015023 | 92 | 148 | 0.9 | 2.6 | 0.00 | 0.00 | 0.00 | 49 | 1009.9 |
| 20260903014524 | 93 | 50 | 0.0 | 6.1 | 0.00 | 0.00 | 0.00 | 49 | 1009.7 |
| 20260903014024 | 93 | 115 | 5.2 | 6.1 | 0.00 | 0.00 | 0.00 | 48 | 1009.7 |
| 20260903013524 | 93 | 319 | 0.9 | 1.7 | 0.00 | 0.00 | 0.00 | 47 | 1009.5 |
| 20260903013024 | 93 | 52 | 0.0 | 0.9 | 0.00 | 0.00 | 0.00 | 47 | 1009.5 |
| 20260903012023 | 94 | 87 | 0.0 | 0.0 | 0.00 | 0.00 | 0.00 | 46 | 1009.5 |
| 20260903011523 | 94 | 87 | 0.0 | 2.6 | 0.00 | 0.00 | 0.00 | 46 | 1009.5 |
| 20260903011024 | 94 | 15 | 0.0 | 2.6 | 0.00 | 0.00 | 0.00 | 46 | 1009.6 |
| 20260903010523 | 95 | 53 | 0.9 | 2.6 | 0.00 | 0.00 | 0.00 | 45 | 1009.6 |
| 20260903005523 | 96 | 57 | 0.9 | 1.7 | 0.00 | 0.00 | 0.00 | 44 | 1009.5 |
| 20260903005023 | 96 | 46 | 1.7 | 3.5 | 0.00 | 0.00 | 0.00 | 44 | 1009.5 |
| 20260903004523 | 97 | 107 | 0.9 | 3.5 | 0.00 | 0.00 | 0.00 | 43 | 1009.6 |
| 20260903003523 | 98 | 161 | 1.7 | 5.2 | 0.00 | 0.00 | 0.00 | 41 | 1009.6 |
| 20260903003023 | 99 | 355 | 0.9 | 5.2 | 0.00 | 0.00 | 0.00 | 41 | 1009.7 |
| 20260903002523 | 99 | 148 | 0.0 | 0.0 | 0.00 | 0.00 | 0.00 | 40 | 1009.5 |
| 20260903002023 | 99 | 148 | 0.0 | 0.0 | 0.00 | 0.00 | 0.00 | 40 | 1009.4 |
| 20260903001523 | 100 | 148 | 0.0 | 1.7 | 0.00 | 0.00 | 0.00 | 39 | 1009.5 |
| 20260903001022 | 100 | 148 | 1.7 | 1.7 | 0.00 | 0.00 | 0.00 | 39 | 1009.5 |
| 20260903000522 | 100 | 138 | 0.9 | 1.7 | 0.00 | 0.00 | 0.00 | 39 | 1009.4 |
| 20260903000022 | 100 | 138 | 0.0 | 1.7 | 0.00 | 0.00 | 0.00 | 39 | 1009.4 |
| 20260902235022 | 101 | 202 | 0.0 | 2.6 | 0.00 | 0.00 | 0.00 | 39 | 1009.5 |
| 20260902233522 | 101 | 276 | 0.0 | 1.7 | 0.00 | 0.00 | 0.00 | 39 | 1009.5 |
| 20260902233022 | 101 | 304 | 0.9 | 1.7 | 0.00 | 0.00 | 0.00 | 40 | 1009.5 |
| 20260902232522 | 101 | 250 | 0.9 | 1.7 | 0.00 | 0.00 | 0.00 | 40 | 1009.5 |
| 20260902232022 | 100 | 190 | 1.7 | 1.7 | 0.00 | 0.00 | 0.00 | 40 | 1009.5 |
| 20260902230522 | 99 | 191 | 1.7 | 3.5 | 0.00 | 0.00 | 0.00 | 42 | 1009.3 |
| 20260902230022 | 99 | 269 | 0.9 | 1.7 | 0.00 | 0.00 | 0.00 | 41 | 1009.3 |
| 20260902225021 | 98 | 304 | 0.9 | 1.7 | 0.00 | 0.00 | 0.00 | 43 | 1009.4 |
| 20260902224521 | 98 | 296 | 0.0 | 1.7 | 0.00 | 0.00 | 0.00 | 43 | 1009.4 |
| 20260902224021 | 98 | 272 | 0.9 | 3.5 | 0.00 | 0.00 | 0.00 | 42 | 1009.4 |
| 20260902223521 | 98 | 232 | 0.9 | 3.5 | 0.00 | 0.00 | 0.00 | 43 | 1009.4 |
| 20260902223021 | 98 | 260 | 1.7 | 3.5 | 0.00 | 0.00 | 0.00 | 42 | 1009.4 |
| 20260902222521 | 98 | 331 | 0.9 | 2.6 | 0.00 | 0.00 | 0.00 | 43 | 1009.4 |
| 20260902222021 | 99 | 285 | 1.7 | 2.6 | 0.00 | 0.00 | 0.00 | 42 | 1009.3 |
| 20260902221521 | 99 | 148 | 0.9 | 3.5 | 0.00 | 0.00 | 0.00 | 43 | 1009.4 |
| 20260902221021 | 99 | 268 | 1.7 | 3.5 | 0.00 | 0.00 | 0.00 | 42 | 1009.4 |
| 20260902220521 | 98 | 355 | 1.7 | 3.5 | 0.00 | 0.00 | 0.00 | 43 | 1009.4 |
| 20260902220021 | 98 | 319 | 0.0 | 2.6 | 0.00 | 0.00 | 0.00 | 43 | 1009.6 |
| 20260902215521 | 98 | 329 | 0.9 | 4.3 | 0.00 | 0.00 | 0.00 | 43 | 1009.6 |
| 20260902215021 | 98 | 299 | 2.6 | 6.1 | 0.00 | 0.00 | 0.00 | 43 | 1009.6 |
| 20260902214521 | 98 | 303 | 3.5 | 6.1 | 0.00 | 0.00 | 0.00 | 42 | 1009.7 |
| 20260902213520 | 98 | 227 | 0.9 | 1.7 | 0.00 | 0.00 | 0.00 | 45 | 1009.7 |
| 20260902213020 | 98 | 148 | 0.9 | 3.5 | 0.00 | 0.00 | 0.00 | 45 | 1009.8 |
| 20260902212020 | 97 | 159 | 0.0 | 6.1 | 0.00 | 0.00 | 0.00 | 45 | 1009.9 |
| 20260902211520 | 97 | 95 | 2.6 | 6.1 | 0.00 | 0.00 | 0.00 | 45 | 1010.0 |
| 20260902211020 | 97 | 115 | 2.6 | 3.5 | 0.00 | 0.00 | 0.00 | 45 | 1010.0 |
| 20260902210520 | 98 | 102 | 0.9 | 3.5 | 0.00 | 0.00 | 0.00 | 45 | 1010.1 |
| 20260902210020 | 98 | 152 | 3.5 | 3.5 | 0.00 | 0.00 | 0.00 | 45 | 1010.1 |
| 20260902205520 | 98 | 300 | 0.9 | 3.5 | 0.00 | 0.00 | 0.00 | 45 | 1010.3 |
| 20260902205020 | 98 | 203 | 1.7 | 3.5 | 0.00 | 0.00 | 0.00 | 45 | 1010.5 |
| 20260902204520 | 98 | 178 | 1.7 | 3.5 | 0.00 | 0.00 | 0.00 | 45 | 1010.5 |
| 20260902204020 | 98 | 209 | 0.9 | 3.5 | 0.00 | 0.00 | 0.00 | 46 | 1010.6 |
| 20260902203520 | 98 | 246 | 1.7 | 3.5 | 0.00 | 0.00 | 0.00 | 46 | 1010.7 |
| 20260902203020 | 98 | 60 | 0.9 | 5.2 | 0.00 | 0.00 | 0.00 | 46 | 1010.7 |
| 20260902202520 | 98 | 252 | 2.6 | 6.1 | 0.00 | 0.00 | 0.00 | 46 | 1010.8 |
| 20260902202020 | 97 | 309 | 1.7 | 6.1 | 0.00 | 0.00 | 0.00 | 46 | 1010.7 |
| 20260902201519 | 97 | 145 | 1.7 | 6.1 | 0.00 | 0.00 | 0.00 | 47 | 1010.8 |
| 20260902201019 | 96 | 113 | 1.7 | 1.7 | 0.00 | 0.00 | 0.00 | 47 | 1010.8 |
| 20260902200520 | 96 | 108 | 0.0 | 2.6 | 0.00 | 0.00 | 0.00 | 46 | 1010.9 |
| 20260902200019 | 96 | 92 | 2.6 | 2.6 | 0.00 | 0.00 | 0.00 | 46 | 1011.0 |
| 20260902194519 | 96 | 107 | 0.9 | 3.5 | 0.00 | 0.00 | 0.00 | 47 | 1011.2 |
| 20260902194019 | 96 | 107 | 1.7 | 3.5 | 0.00 | 0.00 | 0.00 | 48 | 1011.3 |
| 20260902193019 | 96 | 90 | 0.9 | 5.2 | 0.00 | 0.00 | 0.00 | 49 | 1011.4 |
| 20260902192519 | 96 | 286 | 1.7 | 5.2 | 0.00 | 0.00 | 0.00 | 48 | 1011.6 |
| 20260902192019 | 96 | 145 | 0.9 | 2.6 | 0.00 | 0.00 | 0.00 | 48 | 1011.6 |
| 20260902191519 | 96 | 187 | 1.7 | 2.6 | 0.00 | 0.00 | 0.00 | 48 | 1011.7 |
| 20260902190018 | 97 | 131 | 2.6 | 3.5 | 0.00 | 0.00 | 0.00 | 47 | 1012.0 |
| 20260902185518 | 97 | 218 | 0.9 | 3.5 | 0.00 | 0.00 | 0.00 | 47 | 1012.1 |
| 20260902185019 | 97 | 298 | 1.7 | 5.2 | 0.00 | 0.00 | 0.00 | 46 | 1012.1 |
| 20260902184519 | 97 | 124 | 2.6 | 5.2 | 0.00 | 0.00 | 0.00 | 46 | 1012.2 |
| 20260902183518 | 97 | 269 | 0.9 | 3.5 | 0.00 | 0.00 | 0.00 | 46 | 1012.4 |
| 20260902183018 | 97 | 321 | 2.6 | 6.1 | 0.00 | 0.00 | 0.00 | 47 | 1012.4 |
| 20260902182519 | 97 | 289 | 2.6 | 7.0 | 0.00 | 0.00 | 0.00 | 47 | 1012.5 |
| 20260902182019 | 97 | 319 | 1.7 | 7.0 | 0.00 | 0.00 | 0.00 | 47 | 1012.6 |
| 20260902181518 | 97 | 347 | 3.5 | 3.5 | 0.00 | 0.00 | 0.00 | 48 | 1012.8 |
| 20260902181018 | 96 | 326 | 3.5 | 5.2 | 0.00 | 0.00 | 0.00 | 48 | 1012.8 |
| 20260902180518 | 96 | 105 | 1.7 | 7.8 | 0.00 | 0.00 | 0.00 | 49 | 1012.9 |
| 20260902175518 | 97 | 29 | 2.6 | 2.6 | 0.00 | 0.00 | 0.00 | 49 | 1013.2 |
| 20260902175018 | 96 | 104 | 2.6 | 2.6 | 0.00 | 0.00 | 0.00 | 49 | 1013.3 |
| 20260902174518 | 96 | 104 | 0.0 | 2.6 | 0.00 | 0.00 | 0.00 | 50 | 1013.4 |
| 20260902173518 | 96 | 148 | 2.6 | 2.6 | 0.00 | 0.00 | 0.00 | 51 | 1013.5 |
| 20260902173017 | 95 | 113 | 0.9 | 4.3 | 0.00 | 0.00 | 0.00 | 51 | 1013.6 |
| 20260902172517 | 95 | 316 | 2.6 | 4.3 | 0.00 | 0.00 | 0.00 | 51 | 1013.7 |
| 20260902172018 | 95 | 211 | 4.3 | 4.3 | 0.00 | 0.00 | 0.00 | 52 | 1013.8 |
| 20260902171517 | 95 | 311 | 4.3 | 6.1 | 0.00 | 0.00 | 0.00 | 52 | 1013.8 |
| 20260902171018 | 95 | 281 | 3.5 | 6.1 | 0.00 | 0.00 | 0.00 | 52 | 1014.0 |
| 20260902170518 | 95 | 263 | 0.9 | 6.1 | 0.00 | 0.00 | 0.00 | 53 | 1014.0 |
| 20260902170017 | 95 | 247 | 1.7 | 6.1 | 0.00 | 0.00 | 0.00 | 53 | 1014.0 |
| 20260902165517 | 94 | 184 | 2.6 | 7.8 | 0.00 | 0.00 | 0.00 | 54 | 1014.1 |
| 20260902165017 | 94 | 200 | 2.6 | 7.8 | 0.00 | 0.00 | 0.00 | 55 | 1014.2 |
| 20260902164517 | 93 | 147 | 0.0 | 5.2 | 0.00 | 0.00 | 0.00 | 56 | 1014.2 |
| 20260902164017 | 93 | 259 | 0.9 | 5.2 | 0.00 | 0.00 | 0.00 | 56 | 1014.2 |
| 20260902163517 | 93 | 320 | 3.5 | 5.2 | 0.00 | 0.00 | 0.00 | 57 | 1014.3 |
| 20260902163017 | 92 | 107 | 0.9 | 3.5 | 0.00 | 0.00 | 0.00 | 57 | 1014.3 |
| 20260902162517 | 92 | 297 | 2.6 | 3.5 | 0.00 | 0.00 | 0.00 | 58 | 1014.3 |
| 20260902162017 | 92 | 279 | 2.6 | 3.5 | 0.00 | 0.00 | 0.00 | 58 | 1014.3 |
| 20260902161517 | 92 | 272 | 0.0 | 3.5 | 0.00 | 0.00 | 0.00 | 59 | 1014.4 |
| 20260902161017 | 91 | 157 | 1.7 | 6.1 | 0.00 | 0.00 | 0.00 | 60 | 1014.3 |
| 20260902160517 | 91 | 260 | 2.6 | 6.1 | 0.00 | 0.00 | 0.00 | 61 | 1014.3 |
| 20260902160017 | 91 | 139 | 0.9 | 3.5 | 0.00 | 0.00 | 0.00 | 62 | 1014.2 |
| 20260902155517 | 91 | 240 | 1.7 | 4.3 | 0.00 | 0.00 | 0.00 | 62 | 1014.4 |
| 20260902155017 | 90 | 163 | 4.3 | 4.3 | 0.00 | 0.00 | 0.00 | 63 | 1014.4 |
| 20260902154517 | 90 | 337 | 1.7 | 3.5 | 0.00 | 0.00 | 0.00 | 64 | 1014.4 |
| 20260902154017 | 89 | 139 | 3.5 | 3.5 | 0.00 | 0.00 | 0.00 | 65 | 1014.3 |
| 20260902153517 | 89 | 140 | 1.7 | 6.1 | 0.00 | 0.00 | 0.00 | 66 | 1014.3 |
| 20260902153017 | 88 | 296 | 1.7 | 6.1 | 0.00 | 0.00 | 0.00 | 67 | 1014.4 |
| 20260902152517 | 88 | 271 | 1.7 | 2.6 | 0.00 | 0.00 | 0.00 | 67 | 1014.4 |
| 20260902152016 | 87 | 271 | 0.9 | 2.6 | 0.00 | 0.00 | 0.00 | 68 | 1014.4 |
| 20260902151517 | 87 | 328 | 2.6 | 3.5 | 0.00 | 0.00 | 0.00 | 69 | 1014.3 |
| 20260902151016 | 87 | 314 | 2.6 | 7.0 | 0.00 | 0.00 | 0.00 | 69 | 1014.3 |
| 20260902150516 | 86 | 236 | 3.5 | 7.0 | 0.00 | 0.00 | 0.00 | 70 | 1014.3 |
| 20260902150016 | 86 | 249 | 3.5 | 3.5 | 0.00 | 0.00 | 0.00 | 70 | 1014.3 |
| 20260902145516 | 86 | 211 | 0.9 | 4.3 | 0.00 | 0.00 | 0.00 | 71 | 1014.2 |
| 20260902145016 | 85 | 251 | 2.6 | 4.3 | 0.00 | 0.00 | 0.00 | 72 | 1014.3 |
| 20260902144016 | 85 | 121 | 1.7 | 6.1 | 0.00 | 0.00 | 0.00 | 73 | 1014.5 |
| 20260902143516 | 85 | 286 | 2.6 | 5.2 | 0.00 | 0.00 | 0.00 | 73 | 1014.4 |
| 20260902142016 | 84 | 281 | 1.7 | 6.1 | 0.00 | 0.00 | 0.00 | 74 | 1014.6 |
| 20260902141516 | 84 | 226 | 1.7 | 3.5 | 0.00 | 0.00 | 0.00 | 75 | 1014.5 |
| 20260902141016 | 84 | 294 | 3.5 | 3.5 | 0.00 | 0.00 | 0.00 | 75 | 1014.6 |
| 20260902140516 | 83 | 166 | 3.5 | 3.5 | 0.00 | 0.00 | 0.00 | 75 | 1014.6 |
| 20260902140016 | 83 | 254 | 1.7 | 2.6 | 0.00 | 0.00 | 0.00 | 76 | 1014.5 |
| 20260902135516 | 83 | 157 | 2.6 | 2.6 | 0.00 | 0.00 | 0.00 | 76 | 1014.5 |
| 20260902135015 | 83 | 206 | 0.9 | 3.5 | 0.00 | 0.00 | 0.00 | 76 | 1014.4 |
| 20260902134516 | 82 | 252 | 1.7 | 3.5 | 0.00 | 0.00 | 0.00 | 76 | 1014.5 |
| 20260902133015 | 81 | 325 | 1.7 | 4.3 | 0.00 | 0.00 | 0.00 | 77 | 1014.4 |
| 20260902132515 | 81 | 235 | 0.0 | 4.3 | 0.00 | 0.00 | 0.00 | 77 | 1014.3 |
| 20260902132015 | 81 | 217 | 1.7 | 5.2 | 0.00 | 0.00 | 0.00 | 77 | 1014.3 |
| 20260902131515 | 80 | 178 | 1.7 | 5.2 | 0.00 | 0.00 | 0.00 | 78 | 1014.1 |
| 20260902131015 | 80 | 298 | 0.0 | 2.6 | 0.00 | 0.00 | 0.00 | 78 | 1014.1 |
| 20260902130015 | 79 | 224 | 0.0 | 0.0 | 0.00 | 0.00 | 0.00 | 78 | 1014.0 |
| 20260902125515 | 79 | 263 | 0.0 | 0.9 | 0.00 | 0.00 | 0.00 | 78 | 1014.0 |
| 20260902125015 | 79 | 261 | 0.0 | 0.9 | 0.00 | 0.00 | 0.00 | 78 | 1014.0 |
| 20260902124015 | 78 | 326 | 0.0 | 0.0 | 0.00 | 0.00 | 0.00 | 78 | 1013.8 |
| 20260902123515 | 78 | 326 | 0.0 | 0.0 | 0.00 | 0.00 | 0.00 | 78 | 1013.8 |
| 20260902123014 | 78 | 198 | 0.0 | 0.0 | 0.00 | 0.00 | 0.00 | 78 | 1013.7 |
| 20260902122514 | 78 | 198 | 0.0 | 0.9 | 0.00 | 0.00 | 0.00 | 78 | 1013.6 |
| 20260902122014 | 78 | 198 | 0.0 | 0.9 | 0.00 | 0.00 | 0.00 | 78 | 1013.6 |
| 20260902121514 | 78 | 208 | 0.0 | 0.9 | 0.00 | 0.00 | 0.00 | 78 | 1013.6 |
| 20260902120514 | 78 | 209 | 0.9 | 1.7 | 0.00 | 0.00 | 0.00 | 79 | 1013.6 |
| 20260902120014 | 78 | 202 | 0.0 | 0.9 | 0.00 | 0.00 | 0.00 | 79 | 1013.6 |
| 20260902115514 | 78 | 201 | 0.0 | 0.9 | 0.00 | 0.00 | 0.00 | 79 | 1013.6 |
| 20260902115014 | 78 | 202 | 0.0 | 0.9 | 0.00 | 0.00 | 0.00 | 79 | 1013.6 |
| 20260902114514 | 78 | 171 | 0.0 | 0.0 | 0.00 | 0.00 | 0.00 | 79 | 1013.6 |
| 20260902114014 | 77 | 171 | 0.0 | 0.0 | 0.00 | 0.00 | 0.00 | 79 | 1013.6 |
| 20260902113514 | 77 | 190 | 0.0 | 0.0 | 0.00 | 0.00 | 0.00 | 78 | 1013.5 |
| 20260902113014 | 77 | 106 | 0.0 | 0.0 | 0.00 | 0.00 | 0.00 | 78 | 1013.5 |
| 20260902112514 | 77 | 106 | 0.0 | 0.0 | 0.00 | 0.00 | 0.00 | 78 | 1013.5 |
| 20260902112014 | 77 | 106 | 0.0 | 0.0 | 0.00 | 0.00 | 0.00 | 78 | 1013.5 |
| 20260902110014 | 78 | 106 | 0.0 | 0.0 | 0.00 | 0.00 | 0.00 | 77 | 1013.5 |